Regional Weather Roundup
Issued by NWS

Home | Current Version | Previous Version | Graphics & Text | Print | Product List | Glossary On
Versions: 1 2 3 4 5 6 7 8 9 10 11 12 13 14 15 16 17 18 19 20 21 22 23 24 25 26 27 28 29 30 31 32 33 34 35 36 37 38 39 40 41 42 43 44 45 46 47 48 49 50
000
ASUS43 KLSX 210559
RWRMO

WEATHER SUMMARY FOR MISSOURI
NATIONAL WEATHER SERVICE SPRINGFIELD MO
100 AM CDT TUE OCT 21 2014

NOTE: "FAIR" INDICATES FEW OR NO CLOUDS BELOW 12,000 FEET WITH NO
       SIGNIFICANT WEATHER AND/OR OBSTRUCTIONS TO VISIBILITY.
       CURRENT SKY AND/OR WEATHER CONDITIONS ARE NOT AVAILABLE FOR
       CHILLICOTHE AND FARMINGTON.

MOZ001>031-035>038-043-044-053-054-210700-
...NORTHERN AND WESTERN MISSOURI...

CITY           SKY/WX    TMP DP  RH WIND       PRES   REMARKS
KANSAS CTY INT CLEAR     51  41  68 CALM      30.08R
6HR MIN TEMP:  49; 6HR MAX TEMP:  68;

KANSAS C DTWN  CLEAR     51  47  86 CALM      30.08R
6HR MIN TEMP:  50; 6HR MAX TEMP:  67;

LEE`S SUMMIT   CLEAR     53  45  74 SW3       30.08S
6HR MIN TEMP:  47; 6HR MAX TEMP:  66;

ST JOSEPH      CLEAR     38  36  92 CALM      30.08R
6HR MIN TEMP:  38; 6HR MAX TEMP:  58;

KIRKSVILLE     CLEAR     44  42  93 NW3       30.06R
6HR MIN TEMP:  44; 6HR MAX TEMP:  58;


$$
MOZ066>068-077>081-088>096-101>105-210700-
...SOUTHWEST MISSOURI...

CITY           SKY/WX    TMP DP  RH WIND       PRES   REMARKS
SPRINGFIELD    CLEAR     51  49  92 SW3       30.08R
6HR MIN TEMP:  50; 6HR MAX TEMP:  63;

JOPLIN         CLEAR     52  52 100 S5        30.08S FOG
6HR MIN TEMP:  52; 6HR MAX TEMP:  65;


$$
MOZ032>034-039>042-045>050-055>058-069>072-210700-
...CENTRAL MISSOURI...

CITY           SKY/WX    TMP DP  RH WIND       PRES   REMARKS
COLUMBIA       CLEAR     53  43  68 W6        30.06R
6HR MIN TEMP:  53; 6HR MAX TEMP:  64;

JEFFERSON CITY CLEAR     48  44  86 CALM      30.06S
6HR MIN TEMP:  46; 6HR MAX TEMP:  67;

ROLLA          CLEAR     50  41  71 CALM      30.05R
6HR MIN TEMP:  46; 6HR MAX TEMP:  60;

SEDALIA        CLEAR     52  45  77 CALM      30.08S
6HR MIN TEMP:  52; 6HR MAX TEMP:  65;

OSAGE BEACH    CLEAR     46  43  87 CALM      30.07S

$$
MOZ051-052-059>065-210700-
...EAST CENTRAL MISSOURI...

CITY           SKY/WX    TMP DP  RH WIND       PRES   REMARKS
ST LOUIS INTL  CLEAR     53  45  74 W3        30.03R
6HR MIN TEMP:  52; 6HR MAX TEMP:  65;

SPIRIT OF STL  CLEAR     46  44  93 CALM      30.03R
6HR MIN TEMP:  46; 6HR MAX TEMP:  58;

ST CHARLES     CLEAR     46  44  93 CALM      30.02S
6HR MIN TEMP:  46; 6HR MAX TEMP:  61;


$$
MOZ072>076-082>087-097>100-106>115-210700-
...SOUTH CENTRAL AND SOUTHEAST MISSOURI...

CITY           SKY/WX    TMP DP  RH WIND       PRES   REMARKS
CAPE GIRARDEAU CLEAR     47  45  93 CALM      30.03R
6HR MIN TEMP:  46; 6HR MAX TEMP:  65;

FARMINGTON     CLEAR     46  43  87 CALM      30.05S
6HR MIN TEMP:  46; 6HR MAX TEMP:  64;

WEST PLAINS    CLEAR     54  48  80 N3        30.07S
6HR MIN TEMP:  50; 6HR MAX TEMP:  63;


$$



USA.gov is the U.S. government's official web portal to all federal, state and local government web resources and services.